GTI854 KIND-KMSY

Flight info

Callsign GTI854
Flight time 1h 34m
Altitude 36000
Route OOM5 PXV J29 MEM J35 SQS/N0486F370 J35 MCB TRSSH1
Aircraft B748/H-SDE3FGHIM1M2RWXY/LB1

Departure

Time 2026-05-04 21:46
Airport Indianapolis International Airport (KIND)

Arrival

Time 2026-05-04 23:21
Airport Louis Armstrong New Orleans International Airport (KMSY)
Time Latitude Longitude Altitude Speed Heading
2026-05-04 20:22 39.71602 -86.27867 799 ft 0 kts 135°
2026-05-04 21:37 39.71615 -86.27882 798 ft 4 kts 135°
2026-05-04 21:37 39.71633 -86.27907 798 ft 4 kts 141°
2026-05-04 21:37 39.71652 -86.27923 798 ft 4 kts 175°
2026-05-04 21:37 39.71675 -86.27914 798 ft 4 kts 213°
2026-05-04 21:38 39.71684 -86.27906 798 ft 3 kts 208°
2026-05-04 21:42 39.71675 -86.27912 798 ft 3 kts 207°
2026-05-04 21:42 39.71653 -86.27930 798 ft 1 kts 223°
2026-05-04 21:42 39.71654 -86.27954 798 ft 6 kts 292°
2026-05-04 21:42 39.71690 -86.27987 798 ft 3 kts 345°
2026-05-04 21:43 39.71724 -86.27977 798 ft 9 kts 23°
2026-05-04 21:43 39.71749 -86.27948 799 ft 3 kts 43°
2026-05-04 21:43 39.71774 -86.27916 800 ft 8 kts 45°
2026-05-04 21:43 39.71838 -86.27836 801 ft 10 kts 36°
2026-05-04 21:44 39.71860 -86.27835 801 ft 3 kts 338°
2026-05-04 21:44 39.71912 -86.27888 801 ft 14 kts 320°
2026-05-04 21:44 39.71944 -86.27969 799 ft 6 kts 260°
2026-05-04 21:44 39.71919 -86.28025 799 ft 7 kts 224°
2026-05-04 21:45 39.71910 -86.28035 798 ft 1 kts 224°
2026-05-04 21:45 39.71902 -86.28046 798 ft 3 kts 224°
2026-05-04 21:45 39.71818 -86.28152 796 ft 47 kts 224°
2026-05-04 21:45 39.71424 -86.28649 798 ft 108 kts 224°
2026-05-04 21:46 39.70770 -86.29478 802 ft 153 kts 224°
2026-05-04 21:46 39.69946 -86.30553 967 ft 179 kts 222°
2026-05-04 21:46 39.69003 -86.31701 1596 ft 181 kts 221°
2026-05-04 21:46 39.68205 -86.32735 2866 ft 148 kts 223°
2026-05-04 21:47 39.67466 -86.33723 3272 ft 165 kts 223°
2026-05-04 21:47 39.66583 -86.34872 3459 ft 187 kts 223°
2026-05-04 21:47 39.65414 -86.35742 3625 ft 208 kts 200°
2026-05-04 21:47 39.63971 -86.36327 3872 ft 225 kts 200°
2026-05-04 21:48 39.62488 -86.37004 4500 ft 234 kts 204°
2026-05-04 21:48 39.60958 -86.37791 5282 ft 240 kts 204°
2026-05-04 21:48 39.59396 -86.38600 6117 ft 244 kts 204°
2026-05-04 21:48 39.57812 -86.39405 6915 ft 247 kts 205°
2026-05-04 21:49 39.56203 -86.40219 7723 ft 249 kts 206°
2026-05-04 21:49 39.54581 -86.41041 8513 ft 253 kts 206°
2026-05-04 21:49 39.52931 -86.41879 9276 ft 257 kts 207°
2026-05-04 21:49 39.51252 -86.42730 9943 ft 262 kts 207°
2026-05-04 21:50 39.49523 -86.43609 10418 ft 274 kts 208°
2026-05-04 21:50 39.47692 -86.44541 10787 ft 290 kts 207°
2026-05-04 21:50 39.45753 -86.45522 11078 ft 309 kts 207°
2026-05-04 21:50 39.43699 -86.46559 11379 ft 327 kts 207°
2026-05-04 21:51 39.41511 -86.47664 11653 ft 346 kts 206°
2026-05-04 21:51 39.39208 -86.48827 11906 ft 365 kts 206°
2026-05-04 21:51 39.36825 -86.50028 12405 ft 378 kts 206°
2026-05-04 21:51 39.34341 -86.51276 13080 ft 387 kts 206°
2026-05-04 21:52 39.31809 -86.52551 13787 ft 394 kts 206°
2026-05-04 21:52 39.29238 -86.53846 14422 ft 400 kts 206°
2026-05-04 21:52 39.26630 -86.55157 15075 ft 405 kts 206°
2026-05-04 21:52 39.23992 -86.56483 15707 ft 409 kts 206°
2026-05-04 21:53 39.21328 -86.57821 16354 ft 413 kts 206°
2026-05-04 21:53 39.18627 -86.59176 16979 ft 418 kts 206°
2026-05-04 21:53 39.15909 -86.60539 17574 ft 422 kts 206°
2026-05-04 21:53 39.13185 -86.62009 18158 ft 424 kts 210°
2026-05-04 21:54 39.10500 -86.63633 18660 ft 429 kts 210°
2026-05-04 21:54 39.07786 -86.65263 19183 ft 432 kts 210°
2026-05-04 21:54 39.05044 -86.66900 19689 ft 436 kts 209°
2026-05-04 21:54 39.02294 -86.68541 20208 ft 439 kts 210°
2026-05-04 21:55 38.99509 -86.70208 20715 ft 442 kts 210°
2026-05-04 21:55 38.96717 -86.71878 21218 ft 445 kts 210°
2026-05-04 21:55 38.93893 -86.73562 21688 ft 447 kts 210°
2026-05-04 21:55 38.91073 -86.75242 22149 ft 450 kts 210°
2026-05-04 21:56 38.88221 -86.76941 22621 ft 453 kts 210°
2026-05-04 21:56 38.85349 -86.78650 23043 ft 456 kts 210°
2026-05-04 21:56 38.82463 -86.80366 23426 ft 459 kts 209°
2026-05-04 21:56 38.79562 -86.82090 23750 ft 462 kts 210°
2026-05-04 21:57 38.76629 -86.83830 24078 ft 465 kts 210°
2026-05-04 21:57 38.73694 -86.85570 24412 ft 467 kts 210°
2026-05-04 21:57 38.70735 -86.87323 24726 ft 470 kts 210°
2026-05-04 21:57 38.67759 -86.89084 25043 ft 472 kts 210°
2026-05-04 21:58 38.64779 -86.90846 25383 ft 474 kts 210°
2026-05-04 21:58 38.61774 -86.92622 25708 ft 476 kts 210°
2026-05-04 21:58 38.58757 -86.94402 26014 ft 479 kts 210°
2026-05-04 21:58 38.55726 -86.96188 26453 ft 478 kts 210°
2026-05-04 21:59 38.52824 -86.98090 26884 ft 473 kts 217°
2026-05-04 21:59 38.50158 -87.00576 27329 ft 466 kts 226°
2026-05-04 21:59 38.47856 -87.03463 27757 ft 463 kts 231°
2026-05-04 21:59 38.45626 -87.06447 28175 ft 464 kts 231°
2026-05-04 22:00 38.43402 -87.09420 28583 ft 465 kts 231°
2026-05-04 22:00 38.41187 -87.12377 28989 ft 467 kts 231°
2026-05-04 22:00 38.38943 -87.15369 29389 ft 468 kts 231°
2026-05-04 22:00 38.36663 -87.18405 29795 ft 470 kts 231°
2026-05-04 22:01 38.34425 -87.21385 30167 ft 471 kts 231°
2026-05-04 22:01 38.32156 -87.24402 30549 ft 472 kts 231°
2026-05-04 22:01 38.29884 -87.27420 30935 ft 473 kts 231°
2026-05-04 22:01 38.27601 -87.30451 31264 ft 475 kts 231°
2026-05-04 22:02 38.25319 -87.33477 31593 ft 477 kts 230°
2026-05-04 22:02 38.23014 -87.36530 31921 ft 479 kts 230°
2026-05-04 22:02 38.20699 -87.39593 32231 ft 481 kts 230°
2026-05-04 22:02 38.18376 -87.42665 32520 ft 484 kts 230°
2026-05-04 22:03 38.16036 -87.45755 32793 ft 487 kts 230°
2026-05-04 22:03 38.13678 -87.48867 33109 ft 489 kts 230°
2026-05-04 22:03 38.11310 -87.51989 33397 ft 492 kts 230°
2026-05-04 22:03 38.09737 -87.54060 33558 ft 494 kts 230°
2026-05-04 22:04 38.06553 -87.58247 34040 ft 494 kts 230°
2026-05-04 22:04 38.04934 -87.60375 34259 ft 494 kts 230°
2026-05-04 22:04 38.02555 -87.63499 34599 ft 494 kts 230°
2026-05-04 22:04 38.00161 -87.66641 34935 ft 494 kts 230°
2026-05-04 22:05 37.97776 -87.69767 35255 ft 494 kts 230°
2026-05-04 22:05 37.95393 -87.72886 35537 ft 492 kts 230°
2026-05-04 22:05 37.92919 -87.75890 35821 ft 495 kts 223°
2026-05-04 22:05 37.90101 -87.78421 36112 ft 499 kts 217°
2026-05-04 22:06 37.87191 -87.80739 36385 ft 500 kts 217°
2026-05-04 22:06 37.84202 -87.83109 36651 ft 500 kts 217°
2026-05-04 22:06 37.81269 -87.85439 36861 ft 498 kts 217°
2026-05-04 22:07 37.75518 -87.90004 36841 ft 476 kts 217°
2026-05-04 22:07 37.69972 -87.94405 36845 ft 468 kts 217°
2026-05-04 22:08 37.64506 -87.98729 36850 ft 464 kts 218°
2026-05-04 22:08 37.59010 -88.03069 36850 ft 461 kts 218°
2026-05-04 22:09 37.53614 -88.07324 36852 ft 460 kts 218°
2026-05-04 22:09 37.48150 -88.11623 36908 ft 462 kts 218°
2026-05-04 22:09 37.45424 -88.13768 37056 ft 463 kts 218°
2026-05-04 22:10 37.42717 -88.15895 37242 ft 465 kts 218°
2026-05-04 22:10 37.39964 -88.18054 37423 ft 467 kts 218°
2026-05-04 22:10 37.37203 -88.20217 37609 ft 468 kts 218°
2026-05-04 22:10 37.34433 -88.22387 37781 ft 470 kts 218°
2026-05-04 22:11 37.31667 -88.24551 37821 ft 468 kts 218°
2026-05-04 22:11 37.26161 -88.28851 37831 ft 464 kts 218°
2026-05-04 22:12 37.20684 -88.33123 37835 ft 464 kts 218°
2026-05-04 22:12 37.15186 -88.37404 37835 ft 465 kts 218°
2026-05-04 22:13 37.09676 -88.41664 37841 ft 467 kts 215°
2026-05-04 22:13 37.06659 -88.43308 37878 ft 479 kts 204°
2026-05-04 22:13 37.03415 -88.44371 37866 ft 484 kts 198°
2026-05-04 22:14 36.96783 -88.46000 37848 ft 484 kts 200°
2026-05-04 22:14 36.90385 -88.48454 37879 ft 479 kts 207°
2026-05-04 22:15 36.83972 -88.50867 37886 ft 482 kts 202°
2026-05-04 22:15 36.77555 -88.53138 37883 ft 476 kts 205°
2026-05-04 22:16 36.71220 -88.55509 37895 ft 476 kts 204°
2026-05-04 22:16 36.64845 -88.57786 37883 ft 476 kts 205°
2026-05-04 22:17 36.58504 -88.60119 37888 ft 476 kts 204°
2026-05-04 22:17 36.52135 -88.62412 37882 ft 476 kts 204°
2026-05-04 22:18 36.45767 -88.64728 37882 ft 478 kts 205°
2026-05-04 22:18 36.39393 -88.67027 37891 ft 478 kts 205°
2026-05-04 22:19 36.33011 -88.69333 37879 ft 477 kts 205°
2026-05-04 22:19 36.26622 -88.71634 37882 ft 478 kts 205°
2026-05-04 22:20 36.20250 -88.73925 37896 ft 477 kts 205°
2026-05-04 22:20 36.13876 -88.76215 37894 ft 477 kts 205°
2026-05-04 22:21 36.07489 -88.78504 37886 ft 478 kts 205°
2026-05-04 22:21 36.01109 -88.80787 37890 ft 478 kts 205°
2026-05-04 22:22 35.94759 -88.83055 37886 ft 478 kts 205°
2026-05-04 22:22 35.88335 -88.85347 37896 ft 478 kts 205°
2026-05-04 22:23 35.81962 -88.87620 37913 ft 481 kts 206°
2026-05-04 22:23 35.75531 -88.89899 37913 ft 481 kts 206°
2026-05-04 22:24 35.69088 -88.92191 37922 ft 482 kts 206°
2026-05-04 22:24 35.62633 -88.94473 37922 ft 483 kts 206°
2026-05-04 22:25 35.56188 -88.96755 37922 ft 483 kts 206°
2026-05-04 22:25 35.49731 -88.99033 37891 ft 483 kts 206°
2026-05-04 22:26 35.43258 -89.01318 37921 ft 485 kts 207°
2026-05-04 22:26 35.36765 -89.03598 37918 ft 485 kts 207°
2026-05-04 22:27 35.30289 -89.05875 37922 ft 485 kts 207°
2026-05-04 22:27 35.23799 -89.08150 37887 ft 485 kts 207°
2026-05-04 22:28 35.17302 -89.10427 37924 ft 486 kts 207°
2026-05-04 22:28 35.10809 -89.12694 37929 ft 486 kts 207°
2026-05-04 22:29 35.04317 -89.14961 37931 ft 486 kts 207°
2026-05-04 22:29 34.97812 -89.17226 37895 ft 485 kts 207°
2026-05-04 22:30 34.91311 -89.19488 37938 ft 486 kts 207°
2026-05-04 22:30 34.84799 -89.21748 37938 ft 486 kts 207°
2026-05-04 22:31 34.78290 -89.24005 37921 ft 486 kts 207°
2026-05-04 22:31 34.71778 -89.26259 37912 ft 486 kts 208°
2026-05-04 22:32 34.65252 -89.28515 37941 ft 488 kts 208°
2026-05-04 22:32 34.58728 -89.30764 37946 ft 488 kts 208°
2026-05-04 22:33 34.52191 -89.33016 37951 ft 488 kts 208°
2026-05-04 22:33 34.45657 -89.35261 37944 ft 488 kts 208°
2026-05-04 22:34 34.39094 -89.37516 37964 ft 490 kts 208°
2026-05-04 22:34 34.32567 -89.39751 37965 ft 490 kts 208°
2026-05-04 22:35 34.26002 -89.41999 37962 ft 490 kts 208°
2026-05-04 22:35 34.19393 -89.44255 37961 ft 491 kts 208°
2026-05-04 22:36 34.12830 -89.46497 37963 ft 494 kts 208°
2026-05-04 22:36 34.06215 -89.48745 37965 ft 494 kts 208°
2026-05-04 22:37 33.99602 -89.50996 37966 ft 494 kts 208°
2026-05-04 22:37 33.92981 -89.53241 37973 ft 495 kts 209°
2026-05-04 22:38 33.86316 -89.55503 37972 ft 497 kts 209°
2026-05-04 22:38 33.79658 -89.57751 37975 ft 497 kts 209°
2026-05-04 22:39 33.72993 -89.60005 37978 ft 498 kts 209°
2026-05-04 22:39 33.66320 -89.62252 37978 ft 499 kts 210°
2026-05-04 22:40 33.59587 -89.64528 37976 ft 506 kts 210°
2026-05-04 22:40 33.52803 -89.66796 37982 ft 506 kts 210°
2026-05-04 22:41 33.46012 -89.69083 37979 ft 506 kts 210°
2026-05-04 22:41 33.39222 -89.71353 37977 ft 506 kts 210°
2026-05-04 22:42 33.32446 -89.73622 37957 ft 506 kts 210°
2026-05-04 22:42 33.25650 -89.75890 37950 ft 507 kts 210°
2026-05-04 22:43 33.18860 -89.78155 37946 ft 506 kts 210°
2026-05-04 22:43 33.12118 -89.80399 37947 ft 508 kts 209°
2026-05-04 22:44 33.05266 -89.82675 37942 ft 508 kts 209°
2026-05-04 22:44 32.98508 -89.84918 37947 ft 508 kts 209°
2026-05-04 22:45 32.91703 -89.87172 37946 ft 508 kts 209°
2026-05-04 22:45 32.81502 -89.90544 37948 ft 507 kts 209°
2026-05-04 22:46 32.74713 -89.92784 37948 ft 506 kts 209°
2026-05-04 22:46 32.67922 -89.95021 37951 ft 507 kts 209°
2026-05-04 22:47 32.61129 -89.97256 37895 ft 506 kts 208°
2026-05-04 22:47 32.54363 -89.99474 37945 ft 503 kts 208°
2026-05-04 22:48 32.47632 -90.01684 37974 ft 501 kts 209°
2026-05-04 22:48 32.40923 -90.03880 37974 ft 500 kts 209°
2026-05-04 22:49 32.35349 -90.05702 37823 ft 499 kts 209°
2026-05-04 22:49 32.32010 -90.06790 37643 ft 496 kts 209°
2026-05-04 22:49 32.28691 -90.07873 37496 ft 495 kts 209°
2026-05-04 22:50 32.25366 -90.08962 37107 ft 496 kts 209°
2026-05-04 22:50 32.22045 -90.10046 36660 ft 496 kts 209°
2026-05-04 22:50 32.18718 -90.11126 36173 ft 497 kts 209°
2026-05-04 22:50 32.15375 -90.12212 35697 ft 497 kts 209°
2026-05-04 22:51 32.12043 -90.13298 35233 ft 498 kts 209°
2026-05-04 22:51 32.08696 -90.14386 34777 ft 499 kts 208°
2026-05-04 22:51 32.05351 -90.15471 34289 ft 500 kts 208°
2026-05-04 22:51 32.01985 -90.16561 33837 ft 501 kts 208°
2026-05-04 22:52 31.98634 -90.17648 33321 ft 501 kts 208°
2026-05-04 22:52 31.95270 -90.18739 32845 ft 501 kts 208°
2026-05-04 22:52 31.91907 -90.19827 32359 ft 502 kts 207°
2026-05-04 22:52 31.88545 -90.20913 31880 ft 502 kts 207°
2026-05-04 22:53 31.85174 -90.22003 31424 ft 502 kts 207°
2026-05-04 22:53 31.81802 -90.23092 30959 ft 502 kts 207°
2026-05-04 22:53 31.78424 -90.24181 30463 ft 503 kts 206°
2026-05-04 22:53 31.75054 -90.25268 30020 ft 504 kts 206°
2026-05-04 22:54 31.71614 -90.26192 29516 ft 515 kts 197°
2026-05-04 22:54 31.67995 -90.26436 29080 ft 523 kts 188°
2026-05-04 22:54 31.60758 -90.26034 29025 ft 526 kts 186°
2026-05-04 22:55 31.53507 -90.26033 29027 ft 519 kts 190°
2026-05-04 22:55 31.46241 -90.25969 29022 ft 525 kts 187°
2026-05-04 22:56 31.38956 -90.25880 29031 ft 523 kts 189°
2026-05-04 22:56 31.35317 -90.25890 28845 ft 523 kts 188°
2026-05-04 22:56 31.31670 -90.25844 28654 ft 522 kts 188°
2026-05-04 22:57 31.28048 -90.25655 28482 ft 523 kts 185°
2026-05-04 22:57 31.24417 -90.25375 28292 ft 521 kts 184°
2026-05-04 22:57 31.20800 -90.25098 27922 ft 520 kts 184°
2026-05-04 22:57 31.17213 -90.24838 27545 ft 516 kts 184°
2026-05-04 22:58 31.13631 -90.24580 27080 ft 512 kts 184°
2026-05-04 22:58 31.10084 -90.24317 26433 ft 510 kts 184°
2026-05-04 22:58 31.06551 -90.24054 25729 ft 509 kts 183°
2026-05-04 22:58 31.03020 -90.23794 25039 ft 507 kts 183°
2026-05-04 22:59 30.99503 -90.23536 24315 ft 506 kts 182°
2026-05-04 22:59 30.95986 -90.23279 23544 ft 505 kts 182°
2026-05-04 22:59 30.92500 -90.23019 22527 ft 499 kts 182°
2026-05-04 22:59 30.89072 -90.22762 21506 ft 488 kts 182°
2026-05-04 23:00 30.85713 -90.22517 20527 ft 478 kts 182°
2026-05-04 23:00 30.82420 -90.22280 19567 ft 469 kts 182°
2026-05-04 23:00 30.79189 -90.22044 18652 ft 461 kts 181°
2026-05-04 23:00 30.76021 -90.21812 17659 ft 453 kts 181°
2026-05-04 23:01 30.72903 -90.21584 16650 ft 445 kts 181°
2026-05-04 23:01 30.69826 -90.21360 15659 ft 438 kts 181°
2026-05-04 23:01 30.66840 -90.21141 14875 ft 419 kts 181°
2026-05-04 23:01 30.64028 -90.20928 14352 ft 392 kts 181°
2026-05-04 23:02 30.61378 -90.20735 13834 ft 370 kts 181°
2026-05-04 23:02 30.58879 -90.20558 13264 ft 352 kts 181°
2026-05-04 23:02 30.56481 -90.20386 12701 ft 338 kts 181°
2026-05-04 23:02 30.54185 -90.20216 12152 ft 325 kts 181°
2026-05-04 23:03 30.51964 -90.20053 11615 ft 314 kts 181°
2026-05-04 23:03 30.49821 -90.19897 11094 ft 304 kts 181°
2026-05-04 23:03 30.47738 -90.19745 10583 ft 296 kts 181°
2026-05-04 23:03 30.45735 -90.19599 10094 ft 289 kts 180°
2026-05-04 23:04 30.43752 -90.19455 9565 ft 282 kts 180°
2026-05-04 23:04 30.41812 -90.19314 9035 ft 277 kts 180°
2026-05-04 23:04 30.39937 -90.19175 8548 ft 262 kts 180°
2026-05-04 23:04 30.38126 -90.19045 8067 ft 260 kts 180°
2026-05-04 23:05 30.36341 -90.18917 7595 ft 256 kts 180°
2026-05-04 23:05 30.34576 -90.18789 7131 ft 253 kts 180°
2026-05-04 23:05 30.32836 -90.18661 6653 ft 244 kts 180°
2026-05-04 23:05 30.31179 -90.18539 6171 ft 234 kts 180°
2026-05-04 23:06 30.29548 -90.18425 5695 ft 236 kts 179°
2026-05-04 23:06 30.27922 -90.18308 5233 ft 232 kts 179°
2026-05-04 23:06 30.26321 -90.18191 4870 ft 229 kts 178°
2026-05-04 23:06 30.24735 -90.18075 4503 ft 227 kts 178°
2026-05-04 23:07 30.23160 -90.17995 4141 ft 225 kts 185°
2026-05-04 23:07 30.21734 -90.18514 4002 ft 212 kts 208°
2026-05-04 23:07 30.20614 -90.19627 4012 ft 215 kts 231°
2026-05-04 23:07 30.19875 -90.21130 4007 ft 216 kts 240°
2026-05-04 23:08 30.19178 -90.22667 4003 ft 216 kts 240°
2026-05-04 23:08 30.18482 -90.24203 4010 ft 215 kts 240°
2026-05-04 23:08 30.17786 -90.25736 4010 ft 217 kts 240°
2026-05-04 23:08 30.17085 -90.27279 4004 ft 216 kts 240°
2026-05-04 23:09 30.16384 -90.28820 4007 ft 217 kts 240°
2026-05-04 23:09 30.15687 -90.30353 4008 ft 216 kts 240°
2026-05-04 23:09 30.14985 -90.31896 4002 ft 216 kts 240°
2026-05-04 23:09 30.14284 -90.33436 4005 ft 218 kts 240°
2026-05-04 23:10 30.13577 -90.34988 3942 ft 218 kts 240°
2026-05-04 23:10 30.12876 -90.36529 3808 ft 217 kts 240°
2026-05-04 23:10 30.12177 -90.38061 3683 ft 216 kts 240°
2026-05-04 23:10 30.11745 -90.39709 3513 ft 220 kts 268°
2026-05-04 23:11 30.11935 -90.41471 3386 ft 223 kts 277°
2026-05-04 23:11 30.12259 -90.43213 3244 ft 221 kts 279°
2026-05-04 23:11 30.12603 -90.44941 3098 ft 220 kts 280°
2026-05-04 23:11 30.12934 -90.46623 2923 ft 213 kts 279°
2026-05-04 23:12 30.13270 -90.48292 2772 ft 212 kts 279°
2026-05-04 23:12 30.13609 -90.49939 2607 ft 209 kts 281°
2026-05-04 23:12 30.13936 -90.51570 2460 ft 208 kts 280°
2026-05-04 23:12 30.14261 -90.53199 2305 ft 208 kts 279°
2026-05-04 23:13 30.14600 -90.54836 2149 ft 211 kts 280°
2026-05-04 23:13 30.14941 -90.56480 2004 ft 210 kts 280°
2026-05-04 23:13 30.15269 -90.58107 2007 ft 209 kts 280°
2026-05-04 23:13 30.15359 -90.59745 1990 ft 201 kts 250°
2026-05-04 23:14 30.14645 -90.61024 1996 ft 189 kts 215°
2026-05-04 23:14 30.13423 -90.61480 1993 ft 190 kts 177°
2026-05-04 23:14 30.12163 -90.60914 2027 ft 200 kts 143°
2026-05-04 23:14 30.11153 -90.59789 2014 ft 203 kts 136°
2026-05-04 23:15 30.10256 -90.58504 2015 ft 208 kts 129°
2026-05-04 23:15 30.09414 -90.57150 2009 ft 208 kts 129°
2026-05-04 23:15 30.08584 -90.55785 2013 ft 207 kts 129°
2026-05-04 23:15 30.07764 -90.54422 2017 ft 207 kts 129°
2026-05-04 23:16 30.06954 -90.53043 2009 ft 208 kts 125°
2026-05-04 23:16 30.06213 -90.51607 2009 ft 209 kts 123°
2026-05-04 23:16 30.05499 -90.50133 2000 ft 207 kts 127°
2026-05-04 23:16 30.04731 -90.48729 2004 ft 210 kts 119°
2026-05-04 23:17 30.04245 -90.47136 2002 ft 212 kts 110°
2026-05-04 23:17 30.03832 -90.45494 2004 ft 212 kts 109°
2026-05-04 23:17 30.03442 -90.43880 2009 ft 208 kts 109°
2026-05-04 23:17 30.03052 -90.42261 2007 ft 208 kts 109°
2026-05-04 23:18 30.02674 -90.40686 1992 ft 202 kts 109°
2026-05-04 23:18 30.02298 -90.39130 1829 ft 198 kts 109°
2026-05-04 23:18 30.01947 -90.37652 1578 ft 184 kts 110°
2026-05-04 23:18 30.01606 -90.36234 1376 ft 182 kts 109°
2026-05-04 23:19 30.01266 -90.34828 1170 ft 184 kts 110°
2026-05-04 23:19 30.00934 -90.33435 932 ft 177 kts 110°
2026-05-04 23:19 30.00616 -90.32114 696 ft 168 kts 110°
2026-05-04 23:19 30.00302 -90.30836 484 ft 161 kts 111°
2026-05-04 23:20 30.00007 -90.29602 285 ft 158 kts 106°
2026-05-04 23:20 29.99716 -90.28399 98 ft 153 kts 109°
2026-05-04 23:20 29.99438 -90.27260 19 ft 132 kts 107°
2026-05-04 23:20 29.99253 -90.26478 21 ft 74 kts 105°
2026-05-04 23:21 29.99151 -90.26047 20 ft 44 kts 106°
2026-05-04 23:21 29.99078 -90.25807 20 ft 22 kts 116°
2026-05-04 23:21 29.99011 -90.25699 23 ft 6 kts 140°
2026-05-04 23:21 29.98998 -90.25690 24 ft 1 kts 151°
2026-05-04 23:22 29.98987 -90.25685 23 ft 7 kts 161°
2026-05-04 23:22 29.98950 -90.25716 25 ft 4 kts 251°
2026-05-04 23:22 29.98959 -90.25781 23 ft 14 kts 282°
2026-05-04 23:22 29.98988 -90.25916 20 ft 20 kts 286°
2026-05-04 23:23 29.99028 -90.26078 19 ft 21 kts 286°
2026-05-04 23:23 29.99060 -90.26224 18 ft 10 kts 266°
2026-05-04 23:23 29.99040 -90.26259 21 ft 7 kts 218°
2026-05-04 23:23 29.98989 -90.26286 20 ft 10 kts 199°
2026-05-04 23:24 29.98941 -90.26315 19 ft 4 kts 231°
2026-05-04 23:24 29.98936 -90.26337 21 ft 2 kts 265°
2026-05-04 23:24 29.98938 -90.26353 21 ft 5 kts 282°
2026-05-04 23:24 29.98942 -90.26371 20 ft 0 kts 283°